FW0446 Weather Reports


Display with metric or nautical units.
time (UTC)temp
F
wind
direction
speed
MPH
gust
MPH
rain 1hr
in
rain 24hr
in
rain mn
in
humidity
%
barometer
mb
20260507172104 62 277 3.0 5.0 0.00 0.00 0.00 67 1019.2
20260507171604 62 293 3.0 5.0 0.00 0.00 0.00 65 1019.2
20260507171104 63 152 3.0 6.0 0.00 0.00 0.00 63 1018.9
20260507170604 63 210 1.0 3.0 0.00 0.00 0.00 66 1018.9
20260507170104 63 135 1.0 3.0 0.00 0.00 0.00 68 1018.9
20260507165111 64 101 1.0 3.0 0.00 0.00 0.00 66 1018.9
20260507164604 64 112 2.0 2.0 0.00 0.00 0.00 67 1018.9
20260507164103 64 111 3.0 3.0 0.00 0.00 0.00 67 1018.9
20260507163603 64 114 3.0 3.0 0.00 0.00 0.00 67 1019.1
20260507163103 64 189 2.0 3.0 0.00 0.00 0.00 65 1019.1
20260507162104 65 103 2.0 3.0 0.00 0.00 0.00 59 1019.1
20260507161604 66 120 0.0 5.0 0.00 0.00 0.00 57 1019.1
20260507160104 66 123 4.0 6.0 0.00 0.00 0.00 52 1019.2
20260507155604 67 150 4.0 6.0 0.00 0.00 0.00 51 1019.2
20260507155105 67 113 4.0 6.0 0.00 0.00 0.00 51 1019.2
20260507154609 67 131 2.0 3.0 0.00 0.00 0.00 48 1019.3
20260507154106 67 150 3.0 6.0 0.00 0.00 0.00 49 1019.3
20260507153104 69 160 2.0 5.0 0.00 0.00 0.00 45 1019.4
20260507152604 68 178 2.0 3.0 0.00 0.00 0.00 45 1019.4
20260507152103 69 101 2.0 6.0 0.00 0.00 0.00 44 1019.3
20260507151604 69 180 2.0 7.0 0.00 0.00 0.00 42 1019.3
20260507145103 70 194 4.0 9.0 0.00 0.00 0.00 42 1019.3
20260507144604 70 187 4.0 6.0 0.00 0.00 0.00 40 1019.3
20260507144106 70 162 3.0 6.0 0.00 0.00 0.00 38 1019.3
20260507143104 70 112 4.0 6.0 0.00 0.00 0.00 39 1019.3
20260507142604 71 90 3.0 5.0 0.00 0.00 0.00 38 1019.3
20260507142104 71 136 4.0 7.0 0.00 0.00 0.00 39 1019.1
20260507141604 71 127 3.0 6.0 0.00 0.00 0.00 37 1019.1
20260507141104 71 200 3.0 9.0 0.00 0.00 0.00 36 1018.9
20260507140105 72 163 5.0 7.0 0.00 0.00 0.00 37 1018.8
20260507135604 72 37 5.0 8.0 0.00 0.00 0.00 38 1018.8
20260507135103 73 147 3.0 8.0 0.00 0.00 0.00 38 1018.8
20260507134103 72 122 6.0 10.0 0.00 0.00 0.00 41 1018.8
20260507133604 72 147 5.0 7.0 0.00 0.00 0.00 42 1018.7
20260507133111 72 135 6.0 8.0 0.00 0.00 0.00 42 1018.7
20260507132111 72 155 3.0 7.0 0.00 0.00 0.00 43 1018.8
20260507130604 71 137 5.0 10.0 0.00 0.00 0.00 49 1019.0
20260507130104 70 146 4.0 8.0 0.00 0.00 0.00 48 1019.1
20260507125606 70 133 6.0 8.0 0.00 0.00 0.00 47 1019.3
20260507125103 71 122 3.0 5.0 0.00 0.00 0.00 46 1019.3
20260507124104 71 149 6.0 9.0 0.00 0.00 0.00 45 1019.2
20260507123603 73 130 6.0 9.0 0.00 0.00 0.00 44 1019.3
20260507122111 74 121 7.0 10.0 0.00 0.00 0.00 43 1019.4
20260507121107 73 135 7.0 10.0 0.00 0.00 0.00 42 1019.3
20260507120603 73 134 7.0 10.0 0.00 0.00 0.00 42 1019.3
20260507120104 74 112 7.0 10.0 0.00 0.00 0.00 40 1019.4
20260507115607 74 170 5.0 8.0 0.00 0.00 0.00 37 1019.4
20260507115104 75 134 7.0 8.0 0.00 0.00 0.00 35 1019.4
20260507114604 75 96 6.0 10.0 0.00 0.00 0.00 35 1019.5
20260507114104 75 125 7.0 9.0 0.00 0.00 0.00 34 1019.5
20260507113604 75 128 9.0 15.0 0.00 0.00 0.00 34 1019.7
20260507112604 76 122 5.0 10.0 0.00 0.00 0.00 36 1019.7
20260507112103 75 127 7.0 10.0 0.00 0.00 0.00 36 1019.4
20260507111604 75 145 7.0 10.0 0.00 0.00 0.00 36 1019.4
20260507111103 74 113 9.0 14.0 0.00 0.00 0.00 52 1019.5
20260507110603 74 161 6.0 10.0 0.00 0.00 0.00 51 1019.5
20260507110104 74 143 8.0 10.0 0.00 0.00 0.00 58 1019.4
20260507105106 72 120 6.0 9.0 0.00 0.00 0.00 68 1019.4
20260507104604 72 114 8.0 12.0 0.00 0.00 0.00 66 1019.1
20260507104104 73 115 9.0 12.0 0.00 0.00 0.00 62 1019.1
20260507103604 72 136 6.0 10.0 0.00 0.00 0.00 59 1019.1
20260507103103 73 125 9.0 13.0 0.00 0.00 0.00 55 1019.1
20260507102620 73 135 6.0 10.0 0.00 0.00 0.00 61 1019.1
20260507101604 73 113 5.0 8.0 0.00 0.00 0.00 62 1019.3
20260507101104 71 120 5.0 7.0 0.00 0.00 0.00 72 1019.2
20260507100609 72 99 7.0 8.0 0.00 0.00 0.00 73 1019.2
20260507100104 71 122 6.0 10.0 0.00 0.00 0.00 75 1019.2
20260507095104 71 112 7.0 9.0 0.00 0.00 0.00 78 1019.2
20260507094604 71 67 6.0 8.0 0.00 0.00 0.00 79 1019.3
20260507094104 70 121 8.0 10.0 0.00 0.00 0.00 78 1019.3
20260507093604 71 112 6.0 8.0 0.00 0.00 0.00 79 1019.2
20260507093111 70 95 5.0 8.0 0.00 0.00 0.00 78 1019.2
20260507092603 70 125 6.0 8.0 0.00 0.00 0.00 77 1019.2
20260507092104 70 86 6.0 8.0 0.00 0.00 0.00 77 1019.1
20260507091603 70 111 3.0 6.0 0.00 0.00 0.00 76 1019.1
20260507091105 69 134 6.0 9.0 0.00 0.00 0.00 77 1019.1
20260507090604 69 128 7.0 10.0 0.00 0.00 0.00 75 1019.1
20260507090105 69 112 8.0 10.0 0.00 0.00 0.00 77 1019.1
20260507085103 69 95 6.0 9.0 0.00 0.00 0.00 75 1019.2
20260507084105 70 79 5.0 8.0 0.00 0.00 0.00 74 1019.2
20260507083604 69 123 6.0 9.0 0.00 0.00 0.00 74 1019.1
20260507083103 70 112 7.0 9.0 0.00 0.00 0.00 74 1019.1
20260507082604 70 112 7.0 9.0 0.00 0.00 0.00 73 1019.1
20260507082103 70 96 5.0 7.0 0.00 0.00 0.00 64 1019.1
20260507081604 70 112 6.0 8.0 0.00 0.00 0.00 63 1019.1
20260507081111 70 125 6.0 7.0 0.00 0.00 0.00 63 1019.0
20260507080603 71 125 3.0 6.0 0.00 0.00 0.00 62 1019.0
20260507080111 70 122 3.0 5.0 0.00 0.00 0.00 64 1019.0
20260507075619 70 130 5.0 8.0 0.00 0.00 0.00 60 1018.9
20260507075104 69 135 4.0 7.0 0.00 0.00 0.00 62 1018.9
20260507074103 69 112 6.0 8.0 0.00 0.00 0.00 63 1018.7
20260507073604 69 72 7.0 8.0 0.00 0.00 0.00 63 1018.7
20260507073104 71 122 6.0 9.0 0.00 0.00 0.00 61 1018.7
20260507072604 71 131 5.0 6.0 0.00 0.00 0.00 59 1018.7
20260507072104 71 121 6.0 8.0 0.00 0.00 0.00 59 1018.8
20260507070619 70 112 6.0 7.0 0.00 0.00 0.00 63 1018.9
20260507065103 71 119 5.0 6.0 0.00 0.00 0.00 66 1018.8
20260507064106 71 118 4.0 5.0 0.00 0.00 0.00 59 1018.8
20260507063606 69 141 2.0 6.0 0.00 0.00 0.00 62 1018.8
20260507063104 68 139 4.0 6.0 0.00 0.00 0.00 69 1018.8
20260507062104 67 123 5.0 7.0 0.00 0.00 0.00 65 1018.7
20260507061603 67 110 5.0 6.0 0.00 0.00 0.00 68 1018.7
20260507060603 67 135 7.0 8.0 0.00 0.00 0.00 63 1018.5
20260507055103 70 90 3.0 5.0 0.00 0.00 0.00 53 1018.2
20260507054604 69 93 3.0 6.0 0.00 0.00 0.00 53 1018.1
20260507054104 70 116 3.0 6.0 0.00 0.00 0.00 53 1018.1
20260507053611 70 89 3.0 3.0 0.00 0.00 0.00 51 1018.1
20260507053104 71 103 3.0 5.0 0.00 0.00 0.00 50 1018.1
20260507052105 70 115 1.0 2.0 0.00 0.00 0.00 51 1018.0
20260507051604 69 112 2.0 3.0 0.00 0.00 0.00 51 1018.0
20260507051104 70 100 3.0 3.0 0.00 0.00 0.00 52 1018.1
20260507050606 72 16 3.0 3.0 0.00 0.00 0.00 50 1018.1
20260507050104 69 110 0.0 0.0 0.00 0.00 0.00 57 1018.0
20260507045605 69 90 0.0 0.0 0.00 0.00 0.00 56 1017.9
20260507044611 69 112 0.0 0.0 0.00 0.00 0.00 55 1017.8
20260507044106 67 112 1.0 2.0 0.00 0.00 0.00 59 1017.8
20260507043604 67 76 1.0 2.0 0.00 0.00 0.00 58 1017.8
20260507042604 66 270 4.0 5.0 0.00 0.00 0.00 54 1017.8
20260507042103 65 238 5.0 6.0 0.00 0.00 0.00 55 1017.9
20260507041107 64 270 4.0 5.0 0.00 0.00 0.00 57 1017.8
20260507040104 63 240 4.0 5.0 0.00 0.00 0.00 60 1017.8
20260507035603 62 264 5.0 6.0 0.00 0.00 0.00 60 1017.8
20260507034603 61 248 5.0 6.0 0.00 0.00 0.00 62 1017.8
20260507034104 60 255 5.0 6.0 0.00 0.00 0.00 64 1017.8
20260507033104 59 270 5.0 6.0 0.00 0.00 0.00 67 1017.6
20260507032603 59 269 5.0 6.0 0.00 0.00 0.00 68 1017.6
20260507032104 59 270 4.0 6.0 0.00 0.00 0.00 68 1017.7
20260507031604 59 270 5.0 6.0 0.00 0.00 0.00 69 1017.7
20260507031104 58 270 5.0 6.0 0.00 0.00 0.00 71 1017.6
20260507030104 58 270 5.0 7.0 0.00 0.00 0.00 72 1017.6
20260507025104 57 252 5.0 7.0 0.00 0.00 0.00 78 1017.5
20260507024603 57 275 6.0 6.0 0.00 0.00 0.00 82 1017.6
20260507024104 57 270 5.0 6.0 0.00 0.00 0.00 82 1017.6
20260507023604 57 270 5.0 6.0 0.00 0.00 0.00 82 1017.5
20260507023104 57 263 5.0 7.0 0.00 0.00 0.00 81 1017.5
20260507022603 57 265 6.0 7.0 0.00 0.00 0.00 81 1017.5
20260507021604 57 270 6.0 6.0 0.00 0.00 0.00 78 1017.6
20260507021104 58 270 4.0 6.0 0.00 0.00 0.00 75 1017.5
20260507020603 58 270 4.0 6.0 0.00 0.00 0.00 73 1017.5
20260507020104 59 270 5.0 7.0 0.00 0.00 0.00 72 1017.4
20260507015603 59 258 6.0 6.0 0.00 0.00 0.00 67 1017.4
20260507015104 60 255 5.0 6.0 0.00 0.00 0.00 65 1017.4
20260507014603 60 248 6.0 6.0 0.00 0.00 0.00 64 1017.1
20260507014104 59 265 5.0 6.0 0.00 0.00 0.00 65 1017.1
20260507013603 58 270 1.0 2.0 0.00 0.00 0.00 68 1017.0
20260507013104 58 270 0.0 2.0 0.00 0.00 0.00 67 1017.0
20260507012603 58 271 2.0 2.0 0.00 0.00 0.00 67 1017.0
20260507012103 57 292 0.0 0.0 0.00 0.00 0.00 69 1016.8
20260507011604 57 315 0.0 0.0 0.00 0.00 0.00 70 1016.8
20260507010604 56 202 0.0 0.0 0.00 0.00 0.00 75 1017.0
20260507005605 57 202 0.0 0.0 0.00 0.00 0.00 80 1016.9
20260507005103 57 202 0.0 0.0 0.00 0.00 0.00 79 1016.9
20260507004605 57 202 2.0 2.0 0.00 0.00 0.00 82 1016.9
20260507004104 57 202 0.0 0.0 0.00 0.00 0.00 79 1016.9
20260507003603 57 202 0.0 0.0 0.00 0.00 0.00 77 1017.0
20260507003104 58 180 0.0 0.0 0.00 0.00 0.00 70 1017.0
20260507002604 58 180 0.0 2.0 0.00 0.00 0.00 69 1017.0
20260507001611 59 158 0.0 2.0 0.00 0.00 0.00 63 1017.2
20260507001104 60 22 0.0 0.0 0.00 0.00 0.00 61 1017.2
20260507000604 60 158 0.0 0.0 0.00 0.00 0.00 59 1017.2
20260507000104 61 112 0.0 1.0 0.00 0.00 0.00 58 1017.3
20260506235604 61 112 2.0 3.0 0.00 0.00 0.00 57 1017.3
20260506235106 61 270 3.0 5.0 0.00 0.00 0.00 57 1017.3
20260506234604 61 270 5.0 6.0 0.00 0.00 0.00 57 1017.4
20260506233604 61 258 6.0 6.0 0.00 0.00 0.00 58 1017.4
20260506233104 61 268 5.0 6.0 0.00 0.00 0.00 59 1017.4
20260506232604 61 248 5.0 7.0 0.00 0.00 0.00 61 1017.4
20260506232105 61 258 5.0 6.0 0.00 0.00 0.00 61 1017.5
20260506231604 61 270 5.0 6.0 0.00 0.00 0.00 61 1017.5
20260506230604 62 270 5.0 5.0 0.00 0.00 0.00 59 1017.5
20260506230104 62 252 5.0 6.0 0.00 0.00 0.00 58 1017.6
20260506225604 61 257 3.0 5.0 0.00 0.00 0.00 57 1017.6
20260506225104 60 270 2.0 2.0 0.00 0.00 0.00 57 1017.6
20260506224104 61 270 0.0 0.0 0.00 0.00 0.00 56 1017.7
20260506223603 61 270 0.0 0.0 0.00 0.00 0.00 56 1017.8
20260506223105 61 270 0.0 0.0 0.00 0.00 0.00 56 1017.8
20260506222604 61 270 0.0 0.0 0.00 0.00 0.00 55 1017.8
20260506222104 62 315 0.0 0.0 0.00 0.00 0.00 55 1017.8
20260506221106 62 270 0.0 0.0 0.00 0.00 0.00 55 1017.8
20260506220604 62 270 0.0 2.0 0.00 0.00 0.00 55 1017.8
20260506220104 62 270 2.0 5.0 0.00 0.00 0.00 54 1017.8
20260506215607 62 270 4.0 5.0 0.00 0.00 0.00 55 1017.8
20260506215104 61 270 5.0 6.0 0.00 0.00 0.00 59 1017.8
20260506214604 61 270 5.0 6.0 0.00 0.00 0.00 59 1018.0
20260506214104 61 270 6.0 6.0 0.00 0.00 0.00 60 1018.0
20260506213604 61 270 6.0 6.0 0.00 0.00 0.00 60 1018.1
20260506213104 61 265 5.0 7.0 0.00 0.00 0.00 60 1018.1
20260506212104 61 270 5.0 6.0 0.00 0.00 0.00 59 1018.2
20260506211104 61 248 5.0 6.0 0.00 0.00 0.00 59 1018.2
20260506210603 61 248 5.0 6.0 0.00 0.00 0.00 59 1018.2
20260506210106 61 248 5.0 5.0 0.00 0.00 0.00 59 1018.2
20260506205104 62 248 3.0 5.0 0.00 0.00 0.00 58 1018.3
20260506204604 62 244 3.0 6.0 0.00 0.00 0.00 57 1018.3
20260506204104 62 270 5.0 6.0 0.00 0.00 0.00 56 1018.3
20260506203105 62 270 3.0 5.0 0.00 0.00 0.00 56 1018.2
20260506202104 62 270 3.0 3.0 0.00 0.00 0.00 56 1018.1
20260506201104 62 270 2.0 2.0 0.00 0.00 0.00 57 1018.1
20260506200604 61 296 0.0 2.0 0.00 0.00 0.00 57 1018.1
20260506200104 61 315 0.0 0.0 0.00 0.00 0.00 58 1018.1
20260506195620 61 270 0.0 0.0 0.00 0.00 0.00 58 1018.1
20260506195104 61 225 0.0 0.0 0.00 0.00 0.00 58 1018.1
20260506194105 62 256 0.0 0.0 0.00 0.00 0.00 57 1017.9
20260506193606 63 202 0.0 0.0 0.00 0.00 0.00 56 1017.8
20260506193104 62 323 0.0 0.0 0.00 0.00 0.00 56 1017.8
20260506192603 63 270 0.0 0.0 0.00 0.00 0.00 56 1017.8
20260506192104 64 270 0.0 0.0 0.00 0.00 0.00 55 1017.8
20260506191103 64 255 2.0 3.0 0.00 0.00 0.00 54 1017.6
20260506190619 63 248 3.0 3.0 0.00 0.00 0.00 56 1017.6
20260506190104 63 248 3.0 3.0 0.00 0.00 0.00 56 1017.6
20260506185604 63 248 3.0 3.0 0.00 0.00 0.00 56 1017.6
20260506185104 63 248 3.0 3.0 0.00 0.00 0.00 56 1017.6
20260506184619 63 248 3.0 3.0 0.00 0.00 0.00 56 1017.5
20260506184104 63 248 3.0 5.0 0.00 0.00 0.00 57 1017.5
20260506183607 63 248 2.0 3.0 0.00 0.00 0.00 57 1017.3
20260506183103 63 248 2.0 2.0 0.00 0.00 0.00 56 1017.3
20260506182604 63 248 2.0 3.0 0.00 0.00 0.00 56 1017.3
20260506182104 63 257 3.0 5.0 0.00 0.00 0.00 56 1017.2
20260506181604 63 259 2.0 3.0 0.00 0.00 0.00 55 1017.2
20260506181104 63 248 3.0 3.0 0.00 0.00 0.00 54 1017.2
20260506180604 63 248 3.0 3.0 0.00 0.00 0.00 54 1017.2
20260506180105 63 248 3.0 5.0 0.00 0.00 0.00 54 1017.1
20260506175619 63 248 3.0 5.0 0.00 0.00 0.00 54 1017.1
20260506175103 63 248 0.0 3.0 0.00 0.00 0.00 54 1017.1
20260506174119 63 239 2.0 3.0 0.00 0.00 0.00 54 1017.0
20260506173615 64 233 3.0 5.0 0.00 0.00 0.00 54 1016.9
20260506173105 64 203 3.0 5.0 0.00 0.00 0.00 54 1016.9
20260506172604 64 229 2.0 5.0 0.00 0.00 0.00 53 1016.9